Epoch = 2009 June 18.0 TT T = 2009 June 22.28618 TT Peri. = 10.60506 e = 0.4902703 Node = 226.74365 2000.0 q = 1.7014372 AU Incl. = 18.15146 a = 3.3379202 AU n = 0.16161815 P = 6.10 years
m1 = 13.5 + 5 logΔ + 20.0 log r